Location: Caracas
(10.5000°N, 66.9170°W)
Time: 12:21:50
(UTC-04:00)

Envisat - Visible Passes

Search period start: 18 July 2018 00:00
Search period end: 28 July 2018 00:00
Orbit: 764 x 766 km, 98.2° (Epoch: 18 July)

Date Brightness Start Highest point End Pass type
(mag) Time Alt. Az. Time Alt. Az. Time Alt. Az.
18 Jul 4.4 20:33:55 10° SSW 20:38:29 34° W 20:43:03 10° NW visible
19 Jul 2.9 19:56:45 10° SSE 20:01:49 83° ENE 20:06:53 10° N visible
20 Jul 3.9 19:20:52 10° SE 19:25:13 29° ENE 19:29:34 10° NNE visible
20 Jul 5.5 21:00:52 10° SW 21:04:01 17° W 21:07:12 10° WNW visible
21 Jul 3.9 20:22:29 10° S 20:27:20 46° W 20:32:10 10° NNW visible
22 Jul 3.0 19:45:42 10° SSE 19:50:41 61° ENE 19:55:41 10° N visible
23 Jul 4.3 19:10:17 10° SE 19:14:07 22° ENE 19:17:57 10° NNE visible
23 Jul 5.1 20:48:58 10° SSW 20:52:52 23° W 20:56:47 10° NW visible
24 Jul 3.3 20:11:11 10° S 20:16:11 64° WSW 20:21:12 10° NNW visible
25 Jul 3.3 19:34:45 10° SSE 19:39:33 45° ENE 19:44:22 10° N visible
25 Jul 5.9 21:17:39 10° WSW 21:18:26 10° W 21:19:13 10° W visible
26 Jul 4.7 20:37:18 10° SSW 20:41:43 30° W 20:46:08 10° NW visible
27 Jul 3.0 19:59:58 10° S 20:05:02 87° WSW 20:10:07 10° NNW visible
